Weather History for Franklin, NC

Change the Weather History Date:

Monday, January 28, 2008

  Actual Average (KTOC) Record (KTOC)
Temperature  
Mean Temperature 38 °F -  
Max Temperature 60 °F 53 °F 38 °F (2014)
Min Temperature 17 °F 31 °F 27 °F (2014)
Degree Days  
Heating Degree Days 26    
Moisture  
Dew Point 18 °F    
Average Humidity 57    
Maximum Humidity 86    
Minimum Humidity 6    
Precipitation  
Precipitation 0.00 in - - ()
Sea Level Pressure  
Sea Level Pressure 30.15 in    
Wind  
Wind Speed 0 mph (West)    
Max Wind Speed 4 mph    
Max Gust Speed -    
Visibility 10 miles    
Events      
Averages and records for this station are not official NWS values.
T = Trace of Precipitation, MM = Missing Value Source: NWS Daily Summary

Daily Weather History Graph

Daily Weather History Graph

Search for Another Location

Airport:

Trip Planner

Search our weather history database for the weather conditions in past years. The results will help you decide how hot, cold, wet, or windy it might be!

Date:

Astronomy

Jan. 28, 2008 Rise Set
Actual Time 7:36 AM EST 5:57 PM EST
Civil Twilight 7:09 AM EST 6:24 PM EST
Nautical Twilight 6:38 AM EST 6:54 PM EST
Astronomical Twilight 6:08 AM EST 7:25 PM EST
Moon No Moon Rise 10:40 AM EST (1/28)
Length of Visible Light 11h 15m
Length of Day
10h 21m
Waning Gibbous, 64% of the Moon is Illuminated
Jan 28
Waning Gibbous
Jan 30
Last Quarter
Feb 6
New
Feb 13
First Quarter
Feb 20
Full

Hourly Weather History & Observations

Time (EST) Temp. Windchill Dew Point Humidity Pressure Visibility Wind Dir Wind Speed Gust Speed Precip Events Conditions
12:21 AM 23.0 °F - 17.6 °F 80% 30.17 in 10.0 mi Calm Calm - N/A   Clear
1:05 AM 24.8 °F - 17.6 °F 74% 30.15 in 10.0 mi Calm Calm - N/A   Clear
1:21 AM 23.0 °F - 17.6 °F 80% 30.15 in 10.0 mi Calm Calm - N/A   Clear
1:44 AM 21.2 °F - 17.6 °F 86% 30.15 in 10.0 mi Calm Calm - N/A   Clear
2:05 AM 23.0 °F - 17.6 °F 80% 30.16 in 10.0 mi Calm Calm - N/A   Clear
3:23 AM 21.2 °F - 17.6 °F 86% 30.18 in 10.0 mi Calm Calm - N/A   Clear
3:43 AM 19.4 °F - 15.8 °F 86% 30.18 in 10.0 mi Calm Calm - N/A   Clear
4:25 AM 19.4 °F - 15.8 °F 86% 30.19 in 10.0 mi Calm Calm - N/A   Clear
4:44 AM 19.4 °F - 15.8 °F 86% 30.19 in 10.0 mi Calm Calm - N/A   Clear
5:03 AM 19.4 °F - 15.8 °F 86% 30.19 in 10.0 mi Calm Calm - N/A   Clear
5:25 AM 19.4 °F - 15.8 °F 86% 30.20 in 10.0 mi Calm Calm - N/A   Clear
5:43 AM 19.4 °F - 15.8 °F 86% 30.20 in 10.0 mi Calm Calm - N/A   Clear
6:04 AM 19.4 °F - 15.8 °F 86% 30.21 in 10.0 mi Calm Calm - N/A   Clear
6:21 AM 17.6 °F - 14.0 °F 86% 30.21 in 10.0 mi Calm Calm - N/A   Clear
6:41 AM 19.4 °F - 15.8 °F 86% 30.22 in 10.0 mi Calm Calm - N/A   Clear
7:02 AM 17.6 °F - 14.0 °F 86% 30.22 in 10.0 mi Calm Calm - N/A   Clear
7:21 AM 19.4 °F - 14.0 °F 80% 30.23 in 10.0 mi Calm Calm - N/A   Clear
7:41 AM 17.6 °F - 14.0 °F 86% 30.24 in 10.0 mi Calm Calm - N/A   Clear
8:01 AM 17.6 °F - 14.0 °F 86% 30.25 in 10.0 mi Calm Calm - N/A   Clear
8:21 AM 19.4 °F - 15.8 °F 86% 30.25 in 10.0 mi Calm Calm - N/A   Clear
8:42 AM 21.2 °F - 17.6 °F 86% 30.26 in 10.0 mi Calm Calm - N/A   Clear
9:01 AM 24.8 °F - 19.4 °F 80% 30.26 in 10.0 mi Calm Calm - N/A   Clear
9:23 AM 26.6 °F - 21.2 °F 80% 30.25 in 10.0 mi Calm Calm - N/A   Clear
10:22 AM 37.4 °F - 17.6 °F 45% 30.25 in 10.0 mi Calm Calm - N/A   Clear
10:41 AM 41.0 °F - 21.2 °F 45% 30.24 in 10.0 mi Calm Calm - N/A   Clear
11:03 AM 42.8 °F - 19.4 °F 39% 30.23 in 10.0 mi Calm Calm - N/A   Clear
11:22 AM 44.6 °F - 17.6 °F 34% 30.21 in 10.0 mi Calm Calm - N/A   Clear
11:45 AM 46.4 °F - 14.0 °F 27% 30.21 in 10.0 mi Calm Calm - N/A   Clear
12:02 PM 48.2 °F - 8.6 °F 20% 30.20 in 10.0 mi Calm Calm - N/A   Clear
12:46 PM 53.6 °F - 10.4 °F 18% 30.15 in 10.0 mi Calm Calm - N/A   Clear
1:03 PM 53.6 °F - 6.8 °F 15% 30.14 in 10.0 mi Calm Calm - N/A   Clear
1:23 PM 55.4 °F - 3.2 °F 12% 30.12 in 10.0 mi Calm Calm - N/A   Clear
1:42 PM 55.4 °F - 3.2 °F 12% 30.11 in 10.0 mi Calm Calm - N/A   Clear
2:42 PM 60.8 °F - -7.6 °F 6% 30.08 in 10.0 mi Calm Calm - N/A   Clear
3:03 PM 60.8 °F - -4.0 °F 7% 30.08 in 10.0 mi Calm Calm - N/A   Clear
3:43 PM 60.8 °F - -0.4 °F 8% 30.06 in 10.0 mi Calm Calm - N/A   Clear
4:03 PM 60.8 °F - 1.4 °F 9% 30.06 in 10.0 mi Calm Calm - N/A   Clear
4:22 PM 59.0 °F - 15.8 °F 19% 30.07 in 10.0 mi Calm Calm - N/A   Clear
4:41 PM 55.4 °F - 23.0 °F 29% 30.08 in 10.0 mi Calm Calm - N/A   Clear
5:01 PM 53.6 °F - 23.0 °F 30% 30.09 in 10.0 mi Calm Calm - N/A   Clear
5:22 PM 51.8 °F - 28.4 °F 41% 30.10 in 10.0 mi Calm Calm - N/A   Clear
5:42 PM 48.2 °F - 30.2 °F 50% 30.09 in 10.0 mi Calm Calm - N/A   Clear
6:01 PM 48.2 °F - 28.4 °F 46% 30.08 in 10.0 mi Calm Calm - N/A   Clear
6:21 PM 46.4 °F - 28.4 °F 50% 30.08 in 10.0 mi Calm Calm - N/A   Mostly Cloudy
6:43 PM 46.4 °F - 30.2 °F 53% 30.07 in 10.0 mi Calm Calm - N/A   Mostly Cloudy
7:01 PM 46.4 °F - 28.4 °F 50% 30.08 in 10.0 mi Calm Calm - N/A   Scattered Clouds
7:21 PM 46.4 °F - 30.2 °F 53% 30.08 in 10.0 mi Calm Calm - N/A   Clear
7:41 PM 44.6 °F - 30.2 °F 57% 30.10 in 10.0 mi Calm Calm - N/A   Clear
8:01 PM 44.6 °F - 30.2 °F 57% 30.09 in 10.0 mi Calm Calm - N/A   Scattered Clouds
8:21 PM 44.6 °F - 28.4 °F 53% 30.09 in 10.0 mi Calm Calm - N/A   Scattered Clouds
8:44 PM 44.6 °F - 28.4 °F 53% 30.08 in 10.0 mi Calm Calm - N/A   Scattered Clouds
9:22 PM 42.8 °F 41.1 °F 28.4 °F 57% 30.09 in 10.0 mi West 3.5 mph - N/A   Scattered Clouds
10:23 PM 39.2 °F - 30.2 °F 70% 30.08 in 10.0 mi Calm Calm - N/A   Scattered Clouds
11:25 PM 37.4 °F - 28.4 °F 70% 30.06 in 10.0 mi Calm Calm - N/A   Clear
11:42 PM 37.4 °F - 28.4 °F 70% 30.06 in 10.0 mi Calm Calm - N/A   Clear